Flag for Germany Weather past 2 weeks in Wittenberg, Saxony-Anhalt, Germany

Now
36 °F

Fog.


Feels Like: 36 °F
Forecast: 43 / 67 °F
Wind: 2 mph from Southeast

Location: Holzdorf

Current Time: May 28, 2015 at 6:47:03 AM

Latest Report: May 28, 2015 at 5:20 AM


Visibility: N/A

Pressure: 30.07 "Hg

Humidity: 100%

Dew point: 36 °F

Location of WittenbergLocation

Historic Weather in Wittenberg — Graph

°F

Wittenberg temperature yesterday

Maximum temperature yesterday: 57 °F (at 4:20 PM)
Minimum temperature yesterday: 41 °F (at 5:20 AM)
Average temperature yesterday: 51 °F

Past Weeks' High & Low Weather Summary

 TemperatureHumidityPressure
High73 °F (May 18, 6:20 PM)100% (May 13, 5:20 AM)30.33 "Hg (May 13, 5:20 AM)
Low30 °F (May 15, 4:20 AM)27% (May 24, 7:20 PM)29.62 "Hg (May 19, 1:20 AM)
Average54 °F64%30.02 "Hg
* Reported May 13 5:20 AM — May 28 5:20 AM, Wittenberg, Weather by CustomWeather, © 2015

Note: Actual official high and low records may vary slightly from our data, if they occured in-between our weather recording intervals... More about our weather records

Advertising

Wittenberg weather history for previous 24 hours

 ConditionsComfort  
Time TempWeatherWind HumidityBarometerVisibility
5:20 AM
Thu, May 28
36 °FFog.2 mph100%30.07 "HgN/A
4:20 AM37 °FFog.2 mph93%30.07 "HgN/A
3:20 AM37 °FPassing clouds.1 mph93%30.07 "HgN/A
2:20 AM37 °FPassing clouds.1 mph93%30.09 "HgN/A
1:20 AM39 °FPassing clouds.1 mph100%30.09 "HgN/A
12:20 AM43 °FPassing clouds.No wind87%30.12 "HgN/A
11:20 PM
Wed, May 27
48 °FPassing clouds.No wind71%30.12 "HgN/A
10:20 PM52 °FPassing clouds.1 mph67%30.12 "HgN/A
9:20 PM52 °FPartly sunny.1 mph67%30.12 "HgN/A
8:20 PM55 °FPartly sunny.3 mph55%30.12 "HgN/A
7:20 PM55 °FPartly sunny.5 mph51%30.12 "HgN/A
6:20 PM57 °FBroken clouds.7 mph51%30.12 "HgN/A
5:20 PM57 °FBroken clouds.8 mph51%30.12 "HgN/A
4:20 PM57 °FBroken clouds.9 mph51%30.12 "HgN/A
4:00 PM55 °FBroken clouds.9 mph55%30.12 "HgN/A
3:20 PM54 °FPartly sunny.14 mph63%30.15 "HgN/A
2:20 PM55 °FBroken clouds.10 mph59%30.15 "HgN/A
1:20 PM55 °FBroken clouds.14 mph55%30.15 "HgN/A
12:20 PM55 °FBroken clouds.12 mph55%30.15 "HgN/A
11:20 AM52 °FLight rain. Broken clouds.10 mph72%30.15 "HgN/A
10:20 AM52 °FLight rain. Broken clouds.10 mph67%30.15 "HgN/A
9:20 AM52 °FPartly sunny.10 mph67%30.15 "HgN/A
8:20 AM48 °FPartly sunny.9 mph76%30.15 "HgN/A
7:20 AM45 °FPartly sunny.9 mph87%30.15 "HgN/A
6:20 AM43 °FPartly sunny.3 mph87%30.15 "HgN/A
Weather by CustomWeather, © 2015

See weather overviewHow to use our weather pages